カタログに戻る

DELTA 1 DEB

運用中PO
NORAD 21914·DEBRIS·🇺🇸 United States

打ち上げ Jun 12, 1975 から Vandenberg Space Force Base

Loading…

次のパス (今後24時間)

TLE

最新Source: Space-Track

元期: Sep 13, 2026, 11:03 UTC

1 21914U 75052JS  26256.46087752  .00000038  00000-0  39814-3 0  9995
2 21914  99.4471 251.1943 0631201 274.8143 247.0600 12.13890043537139

AllMySatでDELTA 1 DEBをリアルタイム追跡

Download on the App Store